Change the Weather History Date:

Monday, February 24, 2014

  Actual Average (KSPI) Record (KSPI)
Temperature  
Mean Temperature 24 °F 34 °F  
Max Temperature 29 °F 43 °F 78 °F (1930)
Min Temperature 20 °F 25 °F -8 °F (2015)
Degree Days  
Heating Degree Days 40 31  
Month to date heating degree days 827  
Since 1 July heating degree days 4153  
Cooling Degree Days 0 0  
Month to date cooling degree days 0  
Year to date cooling degree days 0  
Moisture  
Dew Point 16 °F    
Average Humidity 69    
Maximum Humidity 81    
Minimum Humidity 58    
Precipitation  
Precipitation 0.00 in 0.08 in 1.93 in (2001)
Month to date precipitation 1.51  
Year to date precipitation 3.33  
Snow  
Snow 0.00 in 0.20 in 8.20 in (1965)
Month to date snowfall 4.9  
Since 1 July snowfall 17.5  
Snow Depth -    
Sea Level Pressure  
Sea Level Pressure 30.31 in    
Wind  
Wind Speed 6 mph (NNW)    
Max Wind Speed 10 mph    
Max Gust Speed -    
Visibility 10 miles    
Events      
T = Trace of Precipitation, MM = Missing Value Source: NWS Daily Summary

Daily Weather History Graph

Daily Weather History Graph

Search for Another Location

Airport or City:

Trip Planner

Search our weather history database for the weather conditions in past years. The results will help you decide how hot, cold, wet, or windy it might be!

Date:

Astronomy

Feb. 24, 2014 Rise Set
Actual Time 6:38 AM CST 5:45 PM CST
Civil Twilight 6:11 AM CST 6:12 PM CST
Nautical Twilight 5:40 AM CST 6:44 PM CST
Astronomical Twilight 5:09 AM CST 7:14 PM CST
Moon 2:35 AM CST (2/24) 12:48 PM CST (2/24)
Length of Visible Light 12h 01m
Length of Day
11h 07m
Waning Crescent, 28% of the Moon is Illuminated
Feb 24
Waning Crescent
Mar 1
New
Mar 8
First Quarter
Mar 16
Full
Mar 23
Last Quarter

Hourly Weather History & Observations

Time (CST) Temp. Windchill Dew Point Humidity Pressure Visibility Wind Dir Wind Speed Gust Speed Precip Events Conditions
12:15 AM 23.9 °F 15.8 °F 18.1 °F 79% 30.31 in 10.0 mi NW 6.9 mph - N/A   Clear
12:35 AM 23.9 °F 14.2 °F 17.6 °F 77% 30.32 in 10.0 mi NW 9.2 mph - N/A   Clear
12:55 AM 23.9 °F 15.0 °F 18.1 °F 79% 30.32 in 10.0 mi NW 8.1 mph - N/A   Clear
1:15 AM 23.9 °F 16.8 °F 18.1 °F 79% 30.31 in 10.0 mi NW 5.8 mph - N/A   Clear
1:35 AM 23.9 °F 15.0 °F 17.4 °F 76% 30.32 in 10.0 mi NW 8.1 mph - N/A   Clear
1:55 AM 23.7 °F 16.6 °F 17.8 °F 78% 30.31 in 10.0 mi NW 5.8 mph - N/A   Clear
2:15 AM 23.5 °F 15.4 °F 18.5 °F 81% 30.32 in 10.0 mi WNW 6.9 mph - N/A   Clear
2:35 AM 23.0 °F 14.7 °F 17.8 °F 80% 30.31 in 10.0 mi WNW 6.9 mph - N/A   Clear
2:55 AM 23.0 °F 14.7 °F 17.6 °F 80% 30.31 in 10.0 mi WNW 6.9 mph - N/A   Clear
3:15 AM 23.0 °F 15.8 °F 16.9 °F 77% 30.31 in 10.0 mi WNW 5.8 mph - N/A   Clear
3:35 AM 22.6 °F 15.3 °F 16.7 °F 78% 30.31 in 10.0 mi NW 5.8 mph - N/A   Clear
3:55 AM 22.5 °F 11.7 °F 16.3 °F 77% 30.31 in 10.0 mi NW 10.4 mph - N/A   Clear
4:15 AM 22.5 °F 13.2 °F 16.0 °F 76% 30.31 in 10.0 mi NW 8.1 mph - N/A   Clear
4:35 AM 22.3 °F 13.0 °F 16.3 °F 78% 30.32 in 10.0 mi NNW 8.1 mph - N/A   Clear
4:55 AM 21.7 °F 11.5 °F 16.5 °F 80% 30.32 in 10.0 mi NNW 9.2 mph - N/A   Clear
5:15 AM 21.2 °F 12.6 °F 15.8 °F 80% 30.33 in 10.0 mi NNW 6.9 mph - N/A   Clear
5:35 AM 21.2 °F 10.9 °F 15.6 °F 79% 30.33 in 10.0 mi NNW 9.2 mph - N/A   Clear
5:55 AM 21.2 °F 11.7 °F 15.8 °F 80% 30.34 in 10.0 mi NW 8.1 mph - N/A   Clear
6:15 AM 21.2 °F 11.7 °F 14.0 °F 74% 30.35 in 10.0 mi NNW 8.1 mph - N/A   Clear
6:35 AM 20.7 °F 11.9 °F 14.5 °F 77% 30.35 in 10.0 mi NNW 6.9 mph - N/A   Clear
6:55 AM 20.7 °F 13.0 °F 14.5 °F 77% 30.35 in 10.0 mi NW 5.8 mph - N/A   Clear
7:15 AM 21.4 °F 12.8 °F 14.5 °F 75% 30.36 in 10.0 mi NNW 6.9 mph - N/A   Clear
7:35 AM 22.1 °F 14.7 °F 13.3 °F 69% 30.35 in 10.0 mi NNW 5.8 mph - N/A   Clear
7:55 AM 22.6 °F 15.3 °F 14.0 °F 69% 30.36 in 10.0 mi NNW 5.8 mph - N/A   Clear
8:15 AM 22.8 °F 16.7 °F 13.5 °F 67% 30.37 in 10.0 mi NW 4.6 mph - N/A   Clear
8:35 AM 23.2 °F 17.2 °F 13.8 °F 67% 30.37 in 10.0 mi North 4.6 mph - N/A   Clear
8:55 AM 23.4 °F 17.4 °F 13.8 °F 67% 30.37 in 10.0 mi North 4.6 mph - N/A   Scattered Clouds
9:15 AM 23.2 °F - 13.5 °F 66% 30.37 in 10.0 mi Calm Calm - N/A   Scattered Clouds
9:35 AM 24.1 °F 19.7 °F 14.4 °F 66% 30.37 in 10.0 mi North 3.5 mph - N/A   Clear
9:55 AM 24.8 °F 20.5 °F 14.2 °F 64% 30.38 in 10.0 mi NNW 3.5 mph - N/A   Scattered Clouds
10:15 AM 25.3 °F 17.6 °F 15.1 °F 65% 30.38 in 10.0 mi WNW 6.9 mph - N/A   Mostly Cloudy
10:35 AM 25.9 °F 20.3 °F 15.3 °F 64% 30.39 in 10.0 mi NW 4.6 mph - N/A   Scattered Clouds
10:55 AM 25.5 °F 18.7 °F 14.4 °F 63% 30.38 in 10.0 mi West 5.8 mph - N/A   Mostly Cloudy
11:15 AM 26.2 °F 20.7 °F 15.1 °F 63% 30.38 in 10.0 mi WNW 4.6 mph - N/A   Overcast
11:35 AM 26.4 °F 22.4 °F 15.4 °F 63% 30.37 in 10.0 mi WNW 3.5 mph - N/A   Overcast
11:55 AM 27.0 °F 21.6 °F 15.6 °F 62% 30.37 in 10.0 mi NW 4.6 mph - N/A   Overcast
12:15 PM 27.7 °F 23.8 °F 15.8 °F 61% 30.36 in 10.0 mi NNW 3.5 mph - N/A   Overcast
12:35 PM 27.3 °F 23.4 °F 16.0 °F 62% 30.36 in 10.0 mi NNW 3.5 mph - N/A   Overcast
12:55 PM 27.1 °F 21.8 °F 15.3 °F 61% 30.35 in 10.0 mi NNW 4.6 mph - N/A   Overcast
1:15 PM 27.5 °F 23.6 °F 15.4 °F 61% 30.34 in 10.0 mi WNW 3.5 mph - N/A   Overcast
1:35 PM 27.9 °F - 15.3 °F 59% 30.33 in 10.0 mi Calm Calm - N/A   Overcast
1:55 PM 28.4 °F 22.2 °F 16.5 °F 61% 30.32 in 10.0 mi North 5.8 mph - N/A   Overcast
2:15 PM 28.9 °F 23.9 °F 16.0 °F 58% 30.32 in 10.0 mi North 4.6 mph - N/A   Mostly Cloudy
2:35 PM 29.1 °F 22.1 °F 16.9 °F 60% 30.31 in 10.0 mi NNW 6.9 mph - N/A   Scattered Clouds
2:55 PM 28.8 °F 21.7 °F 15.8 °F 58% 30.30 in 10.0 mi North 6.9 mph - N/A   Scattered Clouds
3:15 PM 28.2 °F 21.0 °F 16.2 °F 61% 30.30 in 10.0 mi NW 6.9 mph - N/A   Overcast
3:35 PM 27.9 °F 22.6 °F 15.8 °F 61% 30.30 in 10.0 mi NNE 4.6 mph - N/A   Mostly Cloudy
3:55 PM 27.7 °F 23.8 °F 16.0 °F 62% 30.29 in 10.0 mi North 3.5 mph - N/A   Mostly Cloudy
4:15 PM 27.9 °F 24.0 °F 17.1 °F 64% 30.28 in 10.0 mi North 3.5 mph - N/A   Overcast
4:35 PM 27.5 °F 23.6 °F 16.7 °F 64% 30.28 in 10.0 mi North 3.5 mph - N/A   Overcast
4:55 PM 27.5 °F 21.1 °F 17.8 °F 67% 30.27 in 10.0 mi North 5.8 mph - N/A   Overcast
5:15 PM 27.5 °F 20.2 °F 17.6 °F 66% 30.27 in 10.0 mi North 6.9 mph - N/A   Overcast
5:35 PM 27.1 °F 20.7 °F 17.6 °F 67% 30.26 in 10.0 mi NNE 5.8 mph - N/A   Overcast
5:55 PM 26.6 °F 19.1 °F 16.7 °F 66% 30.26 in 10.0 mi North 6.9 mph - N/A   Overcast
6:15 PM 26.6 °F 20.0 °F 17.1 °F 67% 30.26 in 10.0 mi North 5.8 mph - N/A   Overcast
6:35 PM 26.4 °F 19.8 °F 16.2 °F 65% 30.26 in 10.0 mi NE 5.8 mph - N/A   Overcast
6:55 PM 26.4 °F 22.4 °F 15.8 °F 64% 30.27 in 10.0 mi NE 3.5 mph - N/A   Overcast
7:15 PM 26.4 °F 19.8 °F 15.8 °F 64% 30.26 in 10.0 mi NE 5.8 mph - N/A   Overcast
7:35 PM 26.4 °F - 16.3 °F 66% 30.26 in 10.0 mi Calm Calm - N/A   Overcast
7:55 PM 26.4 °F - 16.0 °F 65% 30.26 in 10.0 mi Calm Calm - N/A   Overcast
8:10 PM 26.4 °F - 16.7 °F 67% 30.26 in 10.0 mi Calm Calm - N/A   Overcast
8:35 PM 26.4 °F - 16.9 °F 67% 30.26 in 10.0 mi Calm Calm - N/A   Overcast
8:55 PM 26.4 °F 22.4 °F 16.7 °F 67% 30.26 in 10.0 mi NNE 3.5 mph - N/A   Overcast
9:15 PM 26.4 °F 22.4 °F 17.1 °F 68% 30.26 in 10.0 mi NE 3.5 mph - N/A   Overcast
9:35 PM 26.4 °F 20.9 °F 17.2 °F 68% 30.26 in 10.0 mi North 4.6 mph - N/A   Overcast
9:55 PM 26.4 °F 22.4 °F 17.2 °F 68% 30.26 in 10.0 mi NNE 3.5 mph - N/A   Overcast
10:15 PM 26.4 °F 22.4 °F 17.8 °F 70% 30.25 in 10.0 mi NNE 3.5 mph - N/A   Overcast
10:35 PM 26.4 °F 22.4 °F 17.1 °F 68% 30.23 in 10.0 mi NE 3.5 mph - N/A   Overcast
10:55 PM 26.4 °F 22.4 °F 16.5 °F 66% 30.23 in 10.0 mi NE 3.5 mph - N/A   Overcast
11:15 PM 26.4 °F 22.4 °F 16.9 °F 67% 30.23 in 10.0 mi NNE 3.5 mph - N/A   Overcast
11:35 PM 26.4 °F 19.8 °F 17.1 °F 68% 30.23 in 10.0 mi North 5.8 mph - N/A   Overcast
11:55 PM 26.4 °F 22.4 °F 17.1 °F 68% 30.23 in 10.0 mi NNE 3.5 mph - N/A   Overcast